Location: Beaurecueil
(43.5122°N, 5.5450°E)
Time: 08:15:15
(UTC+00:00)

Cosmos 1939 Rocket - Pass Details

Date: 23 January 2021
Orbit: 531 x 585 km, 97.4° (Epoch: 04 March)

Event Time Altitude Azimuth Distance (km) Brightness Sun altitude
Rises 05:12:05 0° 36° (NE) 2,718 6.7 -19.9°
Reaches altitude 10° 05:15:57 10° 75° (ENE) 1,804 6.4 -19.2°
Maximum altitude 05:16:54 11° 89° (E) 1,753 6.6 -19.0°
Drops below altitude 10° 05:17:50 10° 103° (ESE) 1,795 6.7 -18.9°
Sets 05:21:38 0° 142° (SE) 2,669 7.1 -18.2°
